EW9663 Weather Reports


time (UTC)temp
C
wind
direction
speed
KPH
gust
KPH
rain 1hr
cm
rain 24hr
cm
rain mn
cm
humidity
%
barometer
mb
20180818042157 22 72 0.0 0.0 0.00 0.00 0.00 57 1015.6
20180818040653 22 80 0.0 0.0 0.00 0.00 0.00 59 1015.6
20180818035150 21 86 0.0 0.0 0.00 0.00 0.00 62 1015.6
20180818033651 20 87 0.0 0.0 0.00 0.00 0.00 71 1015.5
20180818032145 17 88 0.0 0.0 0.00 0.00 0.00 86 1015.5
20180818030642 16 88 0.0 0.0 0.00 0.00 0.00 88 1015.5
20180818025140 16 321 0.0 0.0 0.00 0.00 0.00 88 1015.5
20180818023643 16 321 0.0 0.0 0.00 0.00 0.00 88 1015.5
20180818022137 16 321 0.0 0.0 0.00 0.00 0.00 87 1015.4
20180818020637 16 321 0.0 0.0 0.00 0.00 0.00 87 1015.4
20180818015135 16 321 0.0 0.0 0.00 0.00 0.00 87 1015.4
20180818013636 17 321 0.0 0.0 0.00 0.00 0.00 87 1015.4
20180818012131 17 321 0.0 0.0 0.00 0.00 0.00 86 1015.5
20180818010630 17 321 0.0 0.0 0.00 0.00 0.00 86 1015.6
20180818005132 17 321 0.0 0.0 0.00 0.00 0.00 86 1015.7
20180818003628 17 321 0.0 0.0 0.00 0.00 0.00 86 1015.7
20180818002130 17 321 0.0 0.0 0.00 0.00 0.00 86 1015.6
20180818000626 17 321 0.0 0.0 0.00 0.00 0.00 86 1015.6
20180817235126 17 321 0.0 0.0 0.00 0.00 0.00 86 1015.6
20180817233627 17 321 0.0 0.0 0.00 0.00 0.00 86 1015.5
20180817232125 17 321 0.0 0.0 0.00 0.00 0.00 85 1015.6
20180817230621 17 321 0.0 0.0 0.00 0.00 0.00 84 1015.6
20180817225122 17 321 0.0 0.0 0.00 0.00 0.00 83 1015.6
20180817223619 18 321 0.0 0.0 0.00 0.00 0.00 83 1015.6
20180817222120 18 321 0.0 0.0 0.00 0.00 0.00 83 1015.5
20180817220617 18 321 0.0 0.0 0.00 0.00 0.00 82 1015.5
20180817215117 18 321 0.0 0.0 0.00 0.00 0.00 81 1015.4
20180817213617 18 321 0.0 0.0 0.00 0.00 0.00 81 1015.3
20180817212115 18 318 0.0 0.0 0.00 0.00 0.00 81 1015.2
20180817210615 18 310 0.0 0.0 0.00 0.00 0.00 80 1015.2
20180817205116 18 317 0.0 0.0 0.00 0.00 0.00 80 1015.1
20180817203614 19 316 0.0 0.0 0.00 0.00 0.00 79 1015.0
20180817202117 19 311 0.0 0.0 0.00 0.00 0.00 78 1014.8
20180817200615 19 320 0.0 0.0 0.00 0.00 0.00 77 1014.7
20180817195118 20 306 0.0 0.0 0.00 0.00 0.00 76 1014.6
20180817193611 20 309 0.0 0.0 0.00 0.00 0.00 75 1014.4
20180817192115 20 311 0.0 0.0 0.00 0.00 0.00 74 1014.3
20180817190612 21 313 0.0 0.0 0.00 0.00 0.00 73 1014.2
20180817185111 21 315 0.0 0.0 0.00 0.00 0.00 72 1014.3
20180817183613 21 336 0.0 0.0 0.00 0.00 0.00 70 1014.2
20180817182109 22 329 0.0 0.0 0.00 0.00 0.00 69 1014.2
20180817180609 22 325 0.0 0.0 0.00 0.00 0.00 69 1014.2
20180817175106 22 320 0.0 0.0 0.00 0.00 0.00 68 1014.2
20180817173607 22 311 0.0 0.0 0.00 0.00 0.00 68 1014.4
20180817172105 22 306 0.0 0.0 0.00 0.00 0.00 68 1014.5
20180817170607 22 310 0.0 0.0 0.00 0.00 0.00 67 1014.6
20180817165106 23 336 0.0 0.0 0.00 0.00 0.00 66 1014.7
20180817163603 23 340 0.0 0.0 0.00 0.00 0.00 66 1014.8
20180817162100 23 327 0.0 0.0 0.00 0.00 0.00 66 1015.0
20180817160600 23 316 0.0 0.0 0.00 0.00 0.00 65 1015.0
20180817155100 23 317 0.0 0.0 0.00 0.00 0.00 64 1015.2
20180817153556 23 310 0.0 0.0 0.00 0.00 0.00 64 1015.2
20180817152054 23 311 0.0 0.0 0.00 0.00 0.00 64 1015.3
20180817150556 23 336 0.0 0.0 0.00 0.00 0.00 64 1015.4
20180817145054 23 321 0.0 0.0 0.00 0.00 0.00 65 1015.6
20180817143551 23 328 0.0 0.0 0.00 0.00 0.00 64 1015.8
20180817142048 23 335 0.0 0.0 0.00 0.00 0.00 64 1016.1
20180817140549 24 331 0.0 0.0 0.00 0.00 0.00 65 1016.2
20180817135045 23 324 0.0 0.0 0.00 0.00 0.00 66 1016.3
20180817133543 23 324 0.0 0.0 0.00 0.00 0.00 66 1016.5
20180817132044 23 327 0.0 0.0 0.00 0.00 0.00 64 1016.5
20180817130543 23 360 0.0 0.0 0.00 0.00 0.00 65 1016.6
20180817125037 24 325 0.0 0.0 0.00 0.00 0.00 64 1016.7
20180817123531 23 346 0.0 0.0 0.00 0.00 0.00 66 1016.8
20180817122030 23 346 0.0 0.0 0.00 0.00 0.00 66 1016.8
20180817120527 23 346 0.0 0.0 0.00 0.00 0.00 69 1016.9
20180817115027 23 337 0.0 0.0 0.00 0.00 0.00 70 1017.0
20180817113524 23 302 0.0 0.0 0.00 0.00 0.00 71 1017.0
20180817112024 22 310 0.0 0.0 0.00 0.00 0.00 72 1017.2
20180817110516 22 333 0.0 0.0 0.00 0.00 0.00 73 1017.4
20180817105015 21 279 0.0 0.0 0.00 0.00 0.00 74 1017.4
20180817103512 21 300 0.0 0.0 0.00 0.00 0.00 77 1017.6
20180817102004 20 301 0.0 0.0 0.00 0.00 0.00 79 1017.8
20180817100501 20 310 0.0 0.0 0.00 0.00 0.00 80 1017.8
20180817094957 19 292 0.0 0.0 0.00 0.00 0.00 84 1017.9
20180817093455 19 296 0.0 0.0 0.00 0.00 0.00 83 1017.9
20180817091952 18 314 0.0 0.0 0.00 0.00 0.00 84 1018.0
20180817090449 18 296 0.0 0.0 0.00 0.00 0.00 87 1017.9
20180817084946 18 355 0.0 0.0 0.00 0.00 0.00 89 1017.9
20180817083440 17 355 0.0 0.0 0.00 0.00 0.00 93 1018.1
20180817081939 17 355 0.0 0.0 0.00 0.00 0.00 94 1018.0
20180817080435 16 355 0.0 0.0 0.00 0.00 0.00 95 1018.1
20180817074936 16 355 0.0 0.0 0.00 0.00 0.00 95 1018.1
20180817073434 16 355 0.0 0.0 0.00 0.00 0.00 95 1018.0
20180817071939 15 355 0.0 0.0 0.00 0.00 0.00 95 1018.1
20180817070427 15 355 0.0 0.0 0.00 0.00 0.00 94 1018.0
20180817064925 15 355 0.0 0.0 0.00 0.00 0.00 94 1018.1
20180817063424 15 355 0.0 0.0 0.00 0.00 0.00 94 1017.8
20180817061925 15 355 0.0 0.0 0.00 0.00 0.00 94 1017.8
20180817060421 15 355 0.0 0.0 0.00 0.00 0.00 94 1017.6
20180817054915 15 355 0.0 0.0 0.00 0.00 0.00 94 1017.6
20180817053414 15 355 0.0 0.0 0.00 0.00 0.00 93 1017.7
20180817051912 15 355 0.0 0.0 0.00 0.00 0.00 93 1017.6
20180817050413 15 355 0.0 0.0 0.00 0.00 0.00 93 1017.6
20180817044910 15 355 0.0 0.0 0.00 0.00 0.00 93 1017.3
20180817043413 15 355 0.0 0.0 0.00 0.00 0.00 93 1016.9